| time (UTC) | temp F | wind direction | speed MPH | gust MPH | rain 1hr in | rain 24hr in | rain mn in | humidity % | barometer mb |
| 20260905213041 | 56 | 34 | 10.0 | 21.0 | 0.00 | 0.00 | 0.00 | 84 | 1012.0 |
| 20260905204552 | 56 | 109 | 16.0 | 30.0 | 0.00 | 0.00 | 0.00 | 83 | 1011.5 |
| 20260905203054 | 56 | 109 | 15.0 | 30.0 | 0.00 | 0.00 | 0.00 | 82 | 1011.8 |
| 20260905201557 | 56 | 101 | 15.0 | 28.0 | 0.00 | 0.00 | 0.00 | 82 | 1012.0 |
| 20260905200100 | 57 | 80 | 14.0 | 35.0 | 0.00 | 0.00 | 0.00 | 81 | 1012.1 |
| 20260905194547 | 57 | 105 | 17.0 | 28.0 | 0.00 | 0.00 | 0.00 | 80 | 1012.4 |
| 20260905193045 | 57 | 126 | 8.0 | 26.0 | 0.00 | 0.00 | 0.00 | 79 | 1012.4 |
| 20260905191544 | 58 | 124 | 13.0 | 26.0 | 0.00 | 0.00 | 0.00 | 78 | 1012.6 |
| 20260905190044 | 58 | 73 | 15.0 | 32.0 | 0.00 | 0.00 | 0.00 | 77 | 1012.3 |
| 20260905184543 | 59 | 103 | 14.0 | 29.0 | 0.00 | 0.00 | 0.00 | 76 | 1012.3 |
| 20260905183047 | 59 | 118 | 12.0 | 25.0 | 0.00 | 0.00 | 0.00 | 75 | 1012.6 |
| 20260905181541 | 60 | 111 | 10.0 | 27.0 | 0.00 | 0.00 | 0.00 | 73 | 1012.5 |
| 20260905180039 | 60 | 107 | 10.0 | 28.0 | 0.00 | 0.00 | 0.00 | 71 | 1012.2 |
| 20260905174538 | 61 | 127 | 9.0 | 22.0 | 0.00 | 0.00 | 0.00 | 70 | 1012.0 |
| 20260905173039 | 61 | 115 | 9.0 | 21.0 | 0.00 | 0.00 | 0.00 | 68 | 1011.9 |
| 20260905171554 | 62 | 54 | 10.0 | 19.0 | 0.00 | 0.00 | 0.00 | 68 | 1011.9 |
| 20260905170037 | 63 | 111 | 5.0 | 21.0 | 0.00 | 0.00 | 0.00 | 67 | 1011.7 |
| 20260905164540 | 63 | 66 | 3.0 | 14.0 | 0.00 | 0.00 | 0.00 | 68 | 1011.5 |
| 20260905163036 | 64 | 43 | 2.0 | 7.0 | 0.00 | 0.00 | 0.00 | 69 | 1011.4 |
| 20260905161540 | 64 | 49 | 3.0 | 7.0 | 0.00 | 0.00 | 0.00 | 69 | 1011.3 |
| 20260905160044 | 65 | 58 | 0.0 | 7.0 | 0.00 | 0.00 | 0.00 | 69 | 1011.2 |
| 20260905154549 | 65 | 55 | 1.0 | 8.0 | 0.00 | 0.00 | 0.00 | 68 | 1011.0 |
| 20260905153033 | 66 | 315 | 1.0 | 15.0 | 0.00 | 0.00 | 0.00 | 67 | 1010.7 |
| 20260905151536 | 67 | 121 | 5.0 | 21.0 | 0.00 | 0.00 | 0.00 | 65 | 1010.6 |
| 20260905150032 | 68 | 81 | 8.0 | 20.0 | 0.00 | 0.00 | 0.00 | 63 | 1010.4 |
| 20260905144541 | 69 | 114 | 8.0 | 17.0 | 0.00 | 0.00 | 0.00 | 62 | 1010.4 |
| 20260905143031 | 70 | 130 | 5.0 | 17.0 | 0.00 | 0.00 | 0.00 | 58 | 1010.3 |
| 20260905141531 | 71 | 138 | 0.0 | 17.0 | 0.00 | 0.00 | 0.00 | 58 | 1010.6 |
| 20260905140035 | 71 | 118 | 2.0 | 12.0 | 0.00 | 0.00 | 0.00 | 53 | 1010.9 |
| 20260905134529 | 72 | 133 | 0.0 | 8.0 | 0.00 | 0.00 | 0.00 | 53 | 1010.6 |
| 20260905133028 | 72 | 184 | 0.0 | 9.0 | 0.00 | 0.00 | 0.00 | 52 | 1010.6 |
| 20260905131527 | 72 | 119 | 0.0 | 11.0 | 0.00 | 0.00 | 0.00 | 51 | 1010.6 |
| 20260905130025 | 73 | 113 | 1.0 | 8.0 | 0.00 | 0.00 | 0.00 | 51 | 1010.9 |
| 20260905124532 | 73 | 84 | 1.0 | 10.0 | 0.00 | 0.00 | 0.00 | 50 | 1010.8 |
| 20260905123024 | 74 | 174 | 0.0 | 4.0 | 0.00 | 0.00 | 0.00 | 46 | 1010.9 |
| 20260905121525 | 74 | 112 | 0.0 | 7.0 | 0.00 | 0.00 | 0.00 | 48 | 1011.1 |
| 20260905120025 | 74 | 132 | 0.0 | 4.0 | 0.00 | 0.00 | 0.00 | 47 | 1011.2 |
| 20260905114521 | 76 | 148 | 0.0 | 7.0 | 0.00 | 0.00 | 0.00 | 45 | 1011.4 |
| 20260905113017 | 75 | 112 | 0.0 | 7.0 | 0.00 | 0.00 | 0.00 | 48 | 1011.7 |
| 20260905111517 | 74 | 141 | 0.0 | 4.0 | 0.00 | 0.00 | 0.00 | 48 | 1011.9 |
| 20260905110015 | 74 | 182 | 1.0 | 11.0 | 0.00 | 0.00 | 0.00 | 47 | 1012.1 |
| 20260905104523 | 74 | 121 | 1.0 | 7.0 | 0.00 | 0.00 | 0.00 | 46 | 1012.2 |
| 20260905103012 | 74 | 162 | 0.0 | 7.0 | 0.00 | 0.00 | 0.00 | 48 | 1012.5 |
| 20260905101509 | 75 | 132 | 0.0 | 4.0 | 0.00 | 0.00 | 0.00 | 49 | 1012.6 |
| 20260905100007 | 73 | 213 | 0.0 | 5.0 | 0.00 | 0.00 | 0.00 | 47 | 1013.0 |
| 20260905094506 | 74 | 161 | 0.0 | 3.0 | 0.00 | 0.00 | 0.00 | 51 | 1013.2 |
| 20260905093006 | 74 | 207 | 0.0 | 9.0 | 0.00 | 0.00 | 0.00 | 50 | 1013.4 |
| 20260905091504 | 74 | 200 | 0.0 | 8.0 | 0.00 | 0.00 | 0.00 | 53 | 1013.4 |
| 20260905090002 | 73 | 70 | 0.0 | 0.0 | 0.00 | 0.00 | 0.00 | 57 | 1013.6 |
| 20260905084559 | 70 | 257 | 0.0 | 0.0 | 0.00 | 0.00 | 0.00 | 64 | 1013.9 |
| 20260905083054 | 69 | 250 | 0.0 | 0.0 | 0.00 | 0.00 | 0.00 | 64 | 1014.2 |
| 20260905081601 | 69 | 250 | 0.0 | 0.0 | 0.00 | 0.00 | 0.00 | 66 | 1014.4 |
| 20260905080056 | 68 | 250 | 0.0 | 0.0 | 0.00 | 0.00 | 0.00 | 67 | 1014.6 |
| 20260905074547 | 68 | 246 | 0.0 | 0.0 | 0.00 | 0.00 | 0.00 | 69 | 1014.8 |
| 20260905073048 | 66 | 246 | 0.0 | 0.0 | 0.00 | 0.00 | 0.00 | 72 | 1015.0 |
| 20260905071553 | 65 | 108 | 0.0 | 0.0 | 0.00 | 0.00 | 0.00 | 74 | 1015.3 |
| 20260905070046 | 63 | 81 | 0.0 | 0.0 | 0.00 | 0.00 | 0.00 | 77 | 1015.3 |
| 20260905064539 | 63 | 81 | 0.0 | 0.0 | 0.00 | 0.00 | 0.00 | 78 | 1015.4 |
| 20260905063036 | 61 | 78 | 0.0 | 0.0 | 0.00 | 0.00 | 0.00 | 80 | 1015.4 |
| 20260905061550 | 61 | 78 | 0.0 | 0.0 | 0.00 | 0.00 | 0.00 | 80 | 1015.4 |
| 20260905060032 | 61 | 78 | 0.0 | 0.0 | 0.00 | 0.00 | 0.00 | 80 | 1015.4 |
| 20260905054528 | 59 | 78 | 0.0 | 0.0 | 0.00 | 0.00 | 0.00 | 85 | 1015.4 |
| 20260905053025 | 57 | 78 | 0.0 | 0.0 | 0.00 | 0.00 | 0.00 | 87 | 1015.4 |
| 20260905051532 | 57 | 78 | 0.0 | 0.0 | 0.00 | 0.00 | 0.00 | 88 | 1015.5 |
| 20260905050023 | 56 | 78 | 0.0 | 0.0 | 0.00 | 0.00 | 0.00 | 90 | 1015.5 |
| 20260905044524 | 54 | 78 | 0.0 | 0.0 | 0.00 | 0.00 | 0.00 | 92 | 1015.2 |
| 20260905043023 | 53 | 78 | 0.0 | 0.0 | 0.00 | 0.00 | 0.00 | 92 | 1014.9 |
| 20260905041517 | 53 | 78 | 0.0 | 0.0 | 0.00 | 0.00 | 0.00 | 92 | 1014.7 |
| 20260905040019 | 53 | 78 | 0.0 | 0.0 | 0.00 | 0.00 | 0.00 | 91 | 1014.5 |
| 20260905034516 | 53 | 78 | 0.0 | 0.0 | 0.00 | 0.00 | 0.00 | 91 | 1014.3 |
| 20260905033013 | 53 | 78 | 0.0 | 0.0 | 0.00 | 0.00 | 0.00 | 91 | 1014.3 |
| 20260905031514 | 53 | 78 | 0.0 | 0.0 | 0.00 | 0.00 | 0.00 | 90 | 1014.2 |
| 20260905030011 | 53 | 78 | 0.0 | 0.0 | 0.00 | 0.00 | 0.00 | 90 | 1014.3 |
| 20260905024510 | 54 | 78 | 0.0 | 0.0 | 0.00 | 0.00 | 0.00 | 90 | 1014.3 |
| 20260905023010 | 53 | 78 | 0.0 | 0.0 | 0.00 | 0.00 | 0.00 | 90 | 1014.4 |
| 20260905021510 | 53 | 78 | 0.0 | 0.0 | 0.00 | 0.00 | 0.00 | 89 | 1014.4 |
| 20260905020007 | 54 | 78 | 0.0 | 0.0 | 0.00 | 0.00 | 0.00 | 88 | 1014.3 |
| 20260905014504 | 54 | 78 | 0.0 | 0.0 | 0.00 | 0.00 | 0.00 | 86 | 1014.0 |
| 20260905013002 | 55 | 78 | 0.0 | 0.0 | 0.00 | 0.00 | 0.00 | 85 | 1013.7 |
| 20260905011501 | 56 | 78 | 0.0 | 2.0 | 0.00 | 0.00 | 0.00 | 84 | 1013.6 |
| 20260905010107 | 56 | 78 | 3.0 | 8.0 | 0.00 | 0.00 | 0.00 | 84 | 1013.5 |
| 20260905004613 | 55 | 78 | 3.0 | 11.0 | 0.00 | 0.00 | 0.00 | 85 | 1013.5 |
| 20260905003101 | 55 | 88 | 2.0 | 13.0 | 0.00 | 0.00 | 0.00 | 85 | 1013.1 |
| 20260905001558 | 55 | 63 | 4.0 | 16.0 | 0.00 | 0.00 | 0.00 | 85 | 1012.9 |
| 20260905000055 | 56 | 84 | 5.0 | 14.0 | 0.00 | 0.00 | 0.00 | 85 | 1013.0 |
| 20260904234557 | 56 | 84 | 8.0 | 15.0 | 0.00 | 0.00 | 0.00 | 86 | 1013.0 |
| 20260904233053 | 56 | 87 | 4.0 | 17.0 | 0.00 | 0.00 | 0.00 | 86 | 1013.1 |
| 20260904231549 | 57 | 83 | 5.0 | 19.0 | 0.00 | 0.00 | 0.00 | 86 | 1013.1 |
| 20260904230147 | 57 | 116 | 8.0 | 18.0 | 0.00 | 0.00 | 0.00 | 87 | 1013.4 |
| 20260904224553 | 57 | 109 | 11.0 | 20.0 | 0.00 | 0.00 | 0.00 | 88 | 1013.3 |
| 20260904223044 | 57 | 112 | 7.0 | 19.0 | 0.00 | 0.00 | 0.00 | 87 | 1013.3 |
| 20260904221543 | 57 | 117 | 7.0 | 17.0 | 0.00 | 0.00 | 0.00 | 86 | 1013.3 |
| 20260904220106 | 57 | 112 | 11.0 | 18.0 | 0.00 | 0.00 | 0.00 | 86 | 1013.5 |
| 20260904214540 | 57 | 107 | 10.0 | 17.0 | 0.00 | 0.00 | 0.00 | 87 | 1013.7 |